{"data":{"norad_id":53668,"epoch":"2026-09-20T22:00:03.000096Z","epoch_age_seconds":45679,"freshness":"FRESH","line1":"1 53668U 22105W   26263.91670139  .01334558  00000+0  23454-1 0  9990","line2":"2 53668  97.4994 152.3912 0001719  83.9254 217.4942 15.47440106  5729","mean_motion":15.47440106,"eccentricity":0.0001719,"inclination_deg":97.4994,"raan_deg":152.3912,"arg_perigee_deg":83.9254,"mean_anomaly_deg":217.4942,"bstar":0.023454,"rev_number":572,"period_min":93.056913441534,"perigee_km":423.04840195104,"apogee_km":425.38705150609,"semimajor_km":6802.3547267286,"source":"CELESTRAK","updated_at":"2026-09-21T09:00:32.976008Z"}}